GW1094 Weather Reports


Display with metric or nautical units.
time (UTC)temp
F
wind
direction
speed
MPH
gust
MPH
rain 1hr
in
rain 24hr
in
rain mn
in
humidity
%
barometer
mb
20260905034515 61 95 0.0 0.0 0.00 0.10 0.10 99 4102.4
20260905034014 61 95 0.0 0.0 0.00 0.10 0.10 99 4102.4
20260905033509 61 95 0.0 0.0 0.00 0.10 0.10 99 4102.4
20260905033005 61 95 0.0 0.0 0.00 0.10 0.10 99 4102.4
20260905032500 61 95 0.0 0.0 0.00 0.10 0.10 99 4102.7
20260905031955 61 95 0.0 0.0 0.00 0.10 0.10 99 4102.4
20260905031450 61 96 0.0 0.0 0.00 0.10 0.10 99 4102.4
20260905030945 61 96 0.0 0.0 0.00 0.10 0.10 99 4102.7
20260905030441 62 96 0.0 0.0 0.00 0.10 0.10 99 4102.7
20260905025939 62 96 0.0 0.0 0.00 0.10 0.10 99 4102.4
20260905025435 62 96 0.0 0.0 0.00 0.10 0.10 99 4102.4
20260905024932 62 96 0.0 0.0 0.00 0.10 0.10 99 4102.7
20260905024432 62 96 0.0 0.0 0.00 0.10 0.10 99 4102.4
20260905023927 62 96 0.0 0.0 0.00 0.10 0.10 99 4102.4
20260905023422 62 96 0.0 0.0 0.00 0.10 0.10 99 4102.4
20260905022921 62 96 0.0 0.0 0.00 0.10 0.10 99 4102.4
20260905022417 62 96 0.0 0.0 0.00 0.10 0.10 99 4102.7
20260905021911 62 96 0.0 0.0 0.00 0.10 0.10 99 4102.4
20260905021406 62 97 0.0 0.0 0.00 0.10 0.10 99 4102.7
20260905020901 62 96 0.0 0.0 0.00 0.10 0.10 99 4102.4
20260905020400 62 96 0.0 0.0 0.00 0.10 0.10 99 4102.7
20260905015855 62 97 0.0 0.0 0.00 0.10 0.10 99 4102.7
20260905015354 62 97 0.0 0.0 0.00 0.10 0.10 99 4102.7
20260905014853 62 97 0.0 0.0 0.00 0.10 0.10 99 4102.4
20260905014349 63 96 0.0 0.0 0.00 0.10 0.10 99 4102.7
20260905013844 63 96 0.0 0.0 0.00 0.10 0.10 99 4102.4
20260905013340 63 96 0.0 0.0 0.00 0.10 0.10 99 4102.4
20260905012835 63 96 0.0 0.0 0.00 0.10 0.10 99 4102.4
20260905012331 63 84 0.0 0.0 0.00 0.10 0.10 99 4102.4
20260905011828 64 71 0.0 0.0 0.00 0.10 0.10 99 4102.4
20260905011327 64 66 1.0 1.0 0.00 0.10 0.10 99 4102.4
20260905010823 64 63 1.0 1.0 0.00 0.10 0.10 99 4102.1
20260905010318 64 55 0.0 0.0 0.00 0.10 0.10 99 4102.4
20260905005814 64 56 0.0 0.0 0.00 0.10 0.10 99 4102.1
20260905005309 64 55 0.0 0.0 0.00 0.10 0.10 99 4102.1
20260905004804 64 42 0.0 1.0 0.00 0.10 0.10 99 4102.4
20260905004259 64 54 0.0 0.0 0.00 0.10 0.10 99 4102.1
20260905003754 64 103 0.0 1.0 0.00 0.10 0.10 99 4102.1
20260905003250 65 112 0.0 1.0 0.00 0.10 0.10 99 4102.1
20260905002746 65 116 0.0 1.0 0.00 0.10 0.10 99 4102.1
20260905002245 65 122 0.0 0.0 0.00 0.10 0.10 99 4102.1
20260905001741 66 123 0.0 0.0 0.00 0.10 0.10 99 4102.1
20260905001239 66 123 0.0 0.0 0.00 0.10 0.10 99 4101.7
20260905000735 66 124 0.0 0.0 0.00 0.10 0.10 99 4102.1
20260905000233 66 122 0.0 0.0 0.00 0.10 0.10 99 4102.1
20260904235726 66 123 0.0 0.0 0.00 0.10 0.10 99 4102.1
20260904235220 67 123 0.0 0.0 0.00 0.10 0.10 98 4102.1
20260904234715 67 123 0.0 0.0 0.00 0.10 0.10 97 4102.1
20260904234211 67 123 0.0 0.0 0.00 0.10 0.10 97 4101.7
20260904233707 68 123 0.0 0.0 0.00 0.10 0.10 97 4102.1
20260904233202 68 123 0.0 0.0 0.00 0.10 0.10 95 4101.7
20260904232659 69 124 0.0 0.0 0.00 0.10 0.10 95 4101.7
20260904232154 69 124 0.0 0.0 0.00 0.10 0.10 95 4101.7
20260904231644 69 123 0.0 0.0 0.00 0.10 0.10 94 4101.7
20260904231139 69 123 0.0 0.0 0.00 0.10 0.10 94 4101.7
20260904230638 69 123 0.0 0.0 0.00 0.10 0.10 94 4102.1
20260904230134 69 123 0.0 0.0 0.00 0.10 0.10 94 4101.7
20260904225632 69 123 0.0 0.0 0.00 0.10 0.10 94 4101.7
20260904225127 69 124 0.0 0.0 0.00 0.10 0.10 94 4101.7
20260904224621 69 131 2.0 2.0 0.00 0.10 0.10 93 4101.7
20260904224116 70 134 0.0 0.0 0.00 0.10 0.10 93 4101.4
20260904223615 69 135 0.0 0.0 0.00 0.10 0.10 93 4101.4
20260904223110 69 135 0.0 1.0 0.00 0.10 0.10 94 4101.7
20260904222607 70 126 0.0 1.0 0.00 0.10 0.10 94 4101.4
20260904222101 70 127 0.0 1.0 0.00 0.10 0.10 92 4101.4
20260904221556 69 109 0.0 0.0 0.00 0.10 0.10 94 4101.7
20260904221055 69 108 0.0 1.0 0.00 0.10 0.10 93 4101.7
20260904220550 70 110 0.0 0.0 0.00 0.10 0.10 93 4101.7
20260904220045 70 119 2.0 2.0 0.00 0.10 0.10 94 4101.4
20260904215540 70 129 0.0 0.0 0.00 0.10 0.10 94 4101.4
20260904215036 70 135 1.0 1.0 0.00 0.10 0.10 94 4101.4
20260904214531 70 129 1.0 1.0 0.00 0.10 0.10 94 4101.4
20260904214027 70 134 0.0 0.0 0.00 0.10 0.10 95 4101.1
20260904213524 69 136 0.0 1.0 0.00 0.10 0.10 95 4101.1
20260904213022 68 122 0.0 1.0 0.00 0.10 0.10 97 4101.1
20260904212520 68 122 0.0 1.0 0.00 0.10 0.10 97 4101.4
20260904212015 68 123 1.0 1.0 0.00 0.10 0.10 98 4101.4
20260904211510 68 121 0.0 0.0 0.00 0.10 0.10 98 4101.7
20260904211006 68 99 3.0 5.0 0.00 0.10 0.10 98 4101.7
20260904210505 68 124 0.0 0.0 0.00 0.10 0.10 99 4101.7
20260904210001 68 122 0.0 0.0 0.00 0.10 0.10 99 4101.7
20260904205456 68 116 0.0 0.0 0.00 0.10 0.10 99 4101.4
20260904204953 68 99 0.0 1.0 0.00 0.10 0.10 99 4101.4
20260904204448 68 132 0.0 0.0 0.00 0.10 0.10 99 4101.7
20260904203944 68 107 0.0 0.0 0.00 0.10 0.10 99 4101.7
20260904203440 68 132 1.0 1.0 0.00 0.10 0.10 98 4101.4
20260904202936 68 125 1.0 1.0 0.00 0.10 0.10 97 4101.7
20260904202432 68 112 2.0 3.0 0.00 0.10 0.10 97 4101.4
20260904201928 69 134 1.0 2.0 0.00 0.10 0.10 96 4101.4
20260904201423 69 148 0.0 0.0 0.00 0.10 0.10 96 4101.4
20260904200919 69 112 1.0 1.0 0.00 0.10 0.10 96 4101.4
20260904200417 70 153 2.0 2.0 0.00 0.10 0.10 94 4101.4
20260904195912 71 154 2.0 2.0 0.00 0.10 0.10 93 4101.4
20260904195410 70 135 1.0 2.0 0.00 0.10 0.10 93 4101.7
20260904194904 70 95 1.0 1.0 0.00 0.10 0.10 94 4101.4
20260904194404 71 137 2.0 2.0 0.00 0.10 0.10 94 4101.4
20260904193900 71 111 1.0 1.0 0.00 0.10 0.10 93 4101.4
20260904193354 71 138 2.0 2.0 0.00 0.10 0.10 92 4101.4
20260904192849 71 150 2.0 2.0 0.00 0.10 0.10 91 4101.4
20260904192345 71 127 0.0 1.0 0.00 0.10 0.10 92 4101.4
20260904191842 71 111 1.0 2.0 0.00 0.10 0.10 91 4101.7
20260904191338 71 124 1.0 2.0 0.00 0.10 0.10 93 4101.7
20260904190834 71 137 1.0 2.0 0.00 0.10 0.10 93 4101.7
20260904190330 71 147 1.0 2.0 0.00 0.10 0.10 92 4101.4
20260904185826 70 172 0.0 1.0 0.00 0.10 0.10 93 4101.4
20260904185321 70 65 0.0 0.0 0.00 0.10 0.10 92 4101.4
20260904184821 71 81 0.0 0.0 0.00 0.10 0.10 92 4101.4
20260904184316 71 140 0.0 1.0 0.00 0.10 0.10 93 4101.4
20260904183811 70 217 2.0 3.0 0.00 0.10 0.10 92 4101.7
20260904183306 70 94 2.0 3.0 0.00 0.10 0.10 92 4101.7
20260904182801 70 350 1.0 1.0 0.00 0.10 0.10 93 4101.4
20260904182256 70 155 0.0 1.0 0.00 0.10 0.10 93 4102.1
20260904181752 70 194 1.0 2.0 0.00 0.10 0.10 93 4101.7
20260904181252 70 344 0.0 1.0 0.00 0.10 0.10 93 4102.1
20260904180747 70 93 0.0 0.0 0.00 0.10 0.10 94 4102.1
20260904180243 70 93 1.0 2.0 0.00 0.10 0.10 93 4102.1
20260904175741 69 35 0.0 1.0 0.00 0.10 0.10 94 4102.1
20260904175240 70 61 4.0 7.0 0.00 0.10 0.10 93 4101.7
20260904174735 70 113 1.0 1.0 0.00 0.10 0.10 94 4101.7
20260904174231 69 118 0.0 1.0 0.00 0.10 0.10 94 4102.1
20260904173727 69 165 1.0 1.0 0.00 0.10 0.10 94 4101.7
20260904173227 69 130 1.0 1.0 0.00 0.10 0.10 95 4102.1
20260904172723 69 104 0.0 0.0 0.00 0.10 0.10 96 4102.1
20260904172222 69 164 2.0 3.0 0.00 0.10 0.10 95 4102.1
20260904171717 69 135 1.0 3.0 0.00 0.10 0.10 95 4102.1
20260904171212 69 101 2.0 3.0 0.00 0.10 0.10 94 4102.1
20260904170709 70 117 2.0 2.0 0.00 0.10 0.10 95 4101.7
20260904170204 69 130 2.0 2.0 0.00 0.10 0.10 95 4102.1
20260904165702 70 144 1.0 2.0 0.00 0.10 0.10 94 4102.1
20260904165156 71 139 1.0 1.0 0.00 0.10 0.10 93 4102.1
20260904164651 71 100 3.0 5.0 0.00 0.10 0.10 93 4101.7
20260904164146 71 151 1.0 2.0 0.00 0.10 0.10 95 4101.7
20260904163643 70 114 0.0 1.0 0.00 0.10 0.10 95 4101.4
20260904163138 70 129 1.0 1.0 0.00 0.10 0.10 94 4101.1
20260904162637 70 75 2.0 2.0 0.00 0.10 0.10 95 4101.1
20260904162132 70 215 1.0 2.0 0.00 0.10 0.10 95 4101.4
20260904161627 69 84 3.0 3.0 0.00 0.10 0.10 96 4101.4
20260904161122 69 124 1.0 2.0 0.00 0.10 0.10 97 4101.7
20260904160619 70 89 1.0 2.0 0.00 0.10 0.10 96 4102.1
20260904160114 69 88 3.0 3.0 0.00 0.10 0.10 99 4102.1
20260904155613 69 76 1.0 3.0 0.00 0.10 0.10 99 4102.1
20260904155102 68 135 1.0 2.0 0.00 0.10 0.10 99 4102.1
20260904154556 68 117 0.0 0.0 0.00 0.10 0.10 99 4102.4
20260904154051 68 117 0.0 0.0 0.00 0.10 0.10 99 4102.4
20260904153550 68 133 0.0 1.0 0.00 0.10 0.10 99 4102.4
20260904153047 68 150 1.0 1.0 0.00 0.10 0.10 99 4102.4
20260904152542 67 123 1.0 1.0 0.00 0.10 0.10 99 4102.4
20260904152038 67 146 3.0 3.0 0.00 0.10 0.10 99 4102.7
20260904151533 66 141 1.0 1.0 0.00 0.10 0.10 99 4102.4
20260904151027 66 145 2.0 2.0 0.00 0.10 0.10 99 4102.4
20260904150526 66 145 3.0 3.0 0.00 0.10 0.10 99 4102.4
20260904150021 66 145 3.0 3.0 0.00 0.10 0.10 99 4102.7
20260904145515 66 151 0.0 0.0 0.00 0.10 0.10 99 4102.7
20260904145011 66 141 1.0 2.0 0.00 0.10 0.10 99 4102.7
20260904144507 66 126 2.0 3.0 0.00 0.10 0.10 99 4102.7
20260904144003 66 147 1.0 1.0 0.00 0.10 0.10 99 4102.4
20260904143458 66 128 1.0 1.0 0.00 0.10 0.10 99 4102.7
20260904142955 66 137 1.0 2.0 0.00 0.10 0.10 99 4102.4
20260904142451 66 134 1.0 2.0 0.00 0.10 0.10 99 4102.4
20260904141950 66 114 0.0 0.0 0.00 0.10 0.10 99 4102.4
20260904141445 66 146 2.0 2.0 0.00 0.10 0.10 99 4102.1
20260904140942 65 117 2.0 3.0 0.00 0.10 0.10 99 4102.1
20260904140441 66 141 0.0 0.0 0.00 0.10 0.10 99 4102.1
20260904135941 65 152 1.0 2.0 0.00 0.10 0.10 99 4101.7
20260904135440 65 129 1.0 2.0 0.00 0.10 0.10 99 4101.7
20260904134936 65 140 0.0 0.0 0.00 0.10 0.10 99 4102.1
20260904134431 64 119 1.0 2.0 0.00 0.10 0.10 99 4101.7
20260904133925 65 100 0.0 1.0 0.00 0.10 0.10 99 4102.1
20260904133421 65 130 1.0 2.0 0.00 0.10 0.10 99 4102.1
20260904132916 64 118 1.0 2.0 0.00 0.10 0.10 99 4102.1
20260904132411 64 118 3.0 3.0 0.00 0.10 0.10 99 4101.7
20260904131910 65 141 0.0 1.0 0.00 0.10 0.10 99 4101.7
20260904131406 65 114 1.0 2.0 0.00 0.10 0.10 99 4101.7
20260904130901 65 100 0.0 0.0 0.00 0.10 0.10 99 4101.7
20260904130400 64 140 1.0 1.0 0.00 0.10 0.10 99 4101.7
20260904125855 63 137 0.0 0.0 0.00 0.10 0.10 99 4101.7
20260904125352 63 78 0.0 0.0 0.00 0.10 0.10 99 4101.7
20260904124850 63 141 0.0 0.0 0.00 0.10 0.10 99 4101.4
20260904124348 63 120 0.0 0.0 0.00 0.10 0.10 99 4101.1
20260904123843 63 123 0.0 0.0 0.00 0.10 0.10 99 4101.1
20260904123338 62 122 0.0 0.0 0.00 0.10 0.10 99 4101.4
20260904122833 62 123 0.0 0.0 0.00 0.10 0.10 99 4101.4
20260904122332 62 119 0.0 0.0 0.00 0.10 0.10 99 4101.4
20260904121827 62 119 0.0 0.0 0.00 0.10 0.10 99 4102.1
20260904121324 62 118 0.0 1.0 0.00 0.10 0.10 99 4102.1
20260904120820 62 124 0.0 0.0 0.00 0.10 0.10 99 4102.1
20260904120315 62 125 0.0 0.0 0.00 0.10 0.10 99 4101.4
20260904115810 61 125 0.0 0.0 0.05 0.10 0.10 99 4101.1
20260904115307 61 125 0.0 0.0 0.05 0.10 0.10 99 4101.1
20260904114806 61 125 0.0 0.0 0.05 0.10 0.10 99 4101.1
20260904114300 61 125 0.0 0.0 0.04 0.09 0.09 99 4101.1
20260904113755 61 127 0.0 0.0 0.04 0.09 0.09 99 4101.1
20260904113254 61 127 0.0 0.0 0.04 0.09 0.09 99 4101.1
20260904112749 61 127 0.0 0.0 0.04 0.09 0.09 99 4101.1
20260904112245 61 127 0.0 0.0 0.04 0.09 0.09 99 4101.4
20260904111741 61 129 0.0 1.0 0.04 0.09 0.09 99 4101.4
20260904111236 61 134 0.0 0.0 0.03 0.08 0.08 99 4101.7
20260904110732 61 135 0.0 0.0 0.03 0.08 0.08 99 4101.7
20260904110231 61 134 0.0 0.0 0.01 0.06 0.06 99 4102.1
20260904105726 62 135 0.0 0.0 0.04 0.04 0.04 99 4102.1
20260904105221 62 135 0.0 0.0 0.02 0.02 0.02 99 4102.1
20260904104716 62 147 0.0 0.0 0.00 0.00 0.00 99 4102.1
20260904104211 62 138 0.0 0.0 0.00 0.00 0.00 99 4102.1
20260904103709 62 138 0.0 0.0 0.00 0.00 0.00 99 4102.4
20260904103203 62 178 0.0 0.0 0.00 0.00 0.00 99 4102.1
20260904102659 61 146 1.0 2.0 0.00 0.00 0.00 99 4102.1
20260904102154 61 62 0.0 0.0 0.00 0.00 0.00 99 4102.1
20260904101651 61 62 0.0 0.0 0.00 0.00 0.00 99 4102.1
20260904101146 61 54 0.0 1.0 0.00 0.00 0.00 99 4101.7
20260904100642 61 54 0.0 0.0 0.00 0.00 0.00 99 4101.7
20260904100137 60 54 0.0 1.0 0.00 0.00 0.00 99 4101.4
20260904095636 60 54 0.0 0.0 0.00 0.00 0.00 99 4101.4
20260904095131 60 52 1.0 1.0 0.00 0.00 0.00 99 4101.4
20260904094626 60 45 0.0 0.0 0.00 0.00 0.00 99 4101.4
20260904094121 60 33 0.0 1.0 0.00 0.00 0.00 99 4101.4
20260904093618 60 88 0.0 1.0 0.00 0.00 0.00 99 4101.4
20260904093113 60 75 1.0 1.0 0.00 0.00 0.00 99 4101.1
20260904092609 60 53 0.0 1.0 0.00 0.00 0.00 99 4101.1
20260904092105 60 252 0.0 1.0 0.00 0.00 0.00 99 4101.1
20260904091601 60 196 0.0 1.0 0.00 0.00 0.00 99 4101.1
20260904091100 60 200 1.0 1.0 0.00 0.00 0.00 99 4101.1
20260904090556 60 204 1.0 1.0 0.00 0.00 0.00 99 4101.1
20260904090052 60 207 0.0 0.0 0.00 0.00 0.00 99 4101.1
20260904085552 60 209 0.0 0.0 0.00 0.00 0.00 99 4100.7
20260904085051 60 211 0.0 0.0 0.00 0.00 0.00 99 4100.7
20260904084547 60 192 0.0 1.0 0.00 0.00 0.00 99 4100.7
20260904084043 60 192 0.0 0.0 0.00 0.00 0.00 99 4100.4
20260904083539 60 192 1.0 1.0 0.00 0.00 0.00 99 4100.7
20260904083035 60 197 0.0 0.0 0.00 0.00 0.00 99 4101.1
20260904082530 60 196 0.0 0.0 0.00 0.00 0.00 99 4101.1
20260904082025 60 196 0.0 0.0 0.00 0.00 0.00 99 4101.1
20260904081520 60 192 0.0 0.0 0.00 0.00 0.00 99 4100.7
20260904081016 60 193 0.0 0.0 0.00 0.00 0.00 99 4101.1
20260904080511 60 195 0.0 0.0 0.00 0.00 0.00 99 4101.1
20260904080007 60 194 0.0 0.0 0.00 0.00 0.00 99 4100.7
20260904075503 60 196 1.0 1.0 0.00 0.00 0.00 99 4101.1
20260904075003 60 195 0.0 1.0 0.00 0.00 0.00 99 4101.1
20260904074457 60 193 1.0 1.0 0.00 0.00 0.00 99 4100.7
20260904073952 59 193 1.0 1.0 0.00 0.00 0.00 99 4100.7
20260904073447 59 194 0.0 0.0 0.00 0.00 0.00 99 4100.7
20260904072943 60 194 0.0 0.0 0.00 0.00 0.00 99 4101.1
20260904072439 60 194 0.0 1.0 0.00 0.00 0.00 99 4101.1
20260904071938 59 194 0.0 0.0 0.00 0.00 0.00 99 4101.1
20260904071435 59 194 0.0 0.0 0.00 0.00 0.00 99 4100.7
20260904070929 59 206 2.0 2.0 0.00 0.00 0.00 99 4100.7
20260904070427 59 191 1.0 1.0 0.00 0.00 0.00 99 4100.7
20260904065922 59 193 1.0 1.0 0.00 0.00 0.00 99 4100.7
20260904065419 59 194 1.0 1.0 0.00 0.00 0.00 99 4100.7
20260904064918 59 194 0.0 1.0 0.00 0.00 0.00 99 4101.1
20260904064415 59 194 0.0 0.0 0.00 0.00 0.00 99 4101.1
20260904063910 59 194 0.0 0.0 0.00 0.00 0.00 99 4101.1
20260904063407 59 194 0.0 0.0 0.00 0.00 0.00 99 4101.1
20260904062901 59 194 0.0 0.0 0.00 0.00 0.00 99 4101.4
20260904062357 59 194 0.0 0.0 0.00 0.00 0.00 99 4101.4
20260904061853 59 194 1.0 1.0 0.00 0.00 0.00 99 4101.4
20260904061349 59 194 0.0 0.0 0.00 0.00 0.00 99 4101.7
20260904060845 60 194 0.0 0.0 0.00 0.00 0.00 99 4101.7
20260904060341 60 194 0.0 0.0 0.00 0.00 0.00 99 4101.7
20260904055835 60 194 0.0 0.0 0.00 0.00 0.00 99 4102.1
20260904055331 60 194 0.0 0.0 0.00 0.00 0.00 99 4101.7
20260904054826 60 194 0.0 0.0 0.00 0.00 0.00 99 4101.7
20260904054322 61 194 0.0 0.0 0.00 0.00 0.00 99 4101.7
20260904053818 61 195 0.0 0.0 0.00 0.00 0.00 99 4101.7
20260904053317 61 194 0.0 0.0 0.00 0.00 0.00 99 4101.7
20260904052813 61 194 0.0 0.0 0.00 0.00 0.00 99 4101.7
20260904052309 60 194 0.0 0.0 0.00 0.00 0.00 99 4102.1
20260904051806 60 194 0.0 0.0 0.00 0.00 0.00 99 4102.1
20260904051301 61 194 0.0 0.0 0.00 0.00 0.00 99 4101.7
20260904050756 61 194 0.0 0.0 0.00 0.00 0.00 99 4101.7
20260904050252 61 194 0.0 0.0 0.00 0.00 0.00 99 4101.7
20260904045747 61 194 0.0 0.0 0.00 0.00 0.00 99 4101.7
20260904045241 61 194 0.0 0.0 0.00 0.00 0.00 99 4102.1
20260904044736 61 194 0.0 0.0 0.00 0.00 0.00 99 4101.7
20260904044233 61 194 0.0 0.0 0.00 0.00 0.00 99 4101.7
20260904043729 61 194 0.0 0.0 0.00 0.00 0.00 99 4101.7
20260904043225 61 194 0.0 0.0 0.00 0.00 0.00 99 4101.7
20260904042720 61 194 0.0 0.0 0.00 0.00 0.00 99 4101.7
20260904042217 61 194 0.0 0.0 0.00 0.00 0.00 99 4102.1
20260904041715 61 194 0.0 0.0 0.00 0.00 0.00 99 4101.7
20260904041212 61 194 0.0 0.0 0.00 0.00 0.00 99 4102.1
20260904040708 61 194 0.0 0.0 0.00 0.00 0.00 99 4101.7
20260904040204 61 194 0.0 0.0 0.00 0.00 0.00 99 4101.7
20260904035659 61 194 0.0 1.0 0.00 0.00 0.00 99 4102.1
20260904035154 61 194 0.0 1.0 0.00 0.00 0.00 99 4101.7